Weather History for Eagle River, WI

Change the Weather History Date:

Sunday, December 1, 2013

  Actual Average Record
Temperature  
Mean Temperature 29 °F -  
Max Temperature 31 °F 34 °F 51 °F (1998)
Min Temperature 27 °F 19 °F -12 °F (2014)
Degree Days  
Heating Degree Days 36    
Moisture  
Dew Point 24 °F    
Average Humidity 81    
Maximum Humidity 99    
Minimum Humidity 64    
Precipitation  
Precipitation 0.00 in - - ()
Sea Level Pressure  
Sea Level Pressure 30.04 in    
Wind  
Wind Speed 2 mph (North)    
Max Wind Speed 7 mph    
Max Gust Speed -    
Visibility 8 miles    
Events      
Averages and records for this station are not official NWS values.
T = Trace of Precipitation, MM = Missing Value Source: NWS Daily Summary

Daily Weather History Graph

Daily Weather History Graph

Search for Another Location

Airport:

Trip Planner

Search our weather history database for the weather conditions in past years. The results will help you decide how hot, cold, wet, or windy it might be!

Date:

Astronomy

Dec. 01, 2013 Rise Set
Actual Time 7:18 AM CST 4:13 PM CST
Civil Twilight 6:44 AM CST 4:47 PM CST
Nautical Twilight 6:07 AM CST 5:24 PM CST
Astronomical Twilight 5:31 AM CST 6:00 PM CST
Moon 5:32 AM CST (12/1) 3:26 PM CST (12/1)
Length of Visible Light 10h 02m
Length of Day
8h 55m
Waning Crescent, 2% of the Moon is Illuminated
Dec 1
Waning Crescent
Dec 2
New
Dec 9
First Quarter
Dec 17
Full
Dec 25
Last Quarter

Hourly Weather History & Observations

Time (CST) Temp. Windchill Dew Point Humidity Pressure Visibility Wind Dir Wind Speed Gust Speed Precip Events Conditions
12:15 AM 28.4 °F 23.3 °F 22.8 °F 80% 30.06 in 7.0 mi NW 4.6 mph - N/A   Overcast
12:35 AM 28.4 °F - 23.0 °F 80% 30.06 in 7.0 mi Calm Calm - N/A   Overcast
12:55 AM 28.2 °F 24.4 °F 23.5 °F 83% 30.06 in 7.0 mi NNW 3.5 mph - N/A   Overcast
1:15 AM 28.2 °F 24.4 °F 23.9 °F 84% 30.06 in 7.0 mi NW 3.5 mph - N/A   Overcast
1:35 AM 28.4 °F 23.3 °F 24.4 °F 85% 30.06 in 7.0 mi NNW 4.6 mph - N/A   Overcast
1:55 AM 28.8 °F 25.0 °F 24.8 °F 85% 30.07 in 5.0 mi NNW 3.5 mph - N/A   Overcast
2:15 AM 28.8 °F 25.0 °F 25.0 °F 86% 30.07 in 5.0 mi North 3.5 mph - N/A   Overcast
2:35 AM 28.8 °F - 25.2 °F 86% 30.07 in 5.0 mi Calm Calm - N/A   Overcast
2:55 AM 28.8 °F 25.0 °F 25.9 °F 89% 30.07 in 5.0 mi North 3.5 mph - N/A   Overcast
3:15 AM 28.6 °F 24.8 °F 28.4 °F 99% 30.07 in 4.0 mi North 3.5 mph - N/A   Overcast
3:35 AM 28.8 °F 25.0 °F 28.4 °F 99% 30.08 in 4.0 mi North 3.5 mph - N/A   Overcast
3:55 AM 28.6 °F 22.4 °F 28.2 °F 99% 30.08 in 4.0 mi North 5.8 mph - N/A   Overcast
4:15 AM 28.6 °F 23.5 °F 27.9 °F 97% 30.08 in 5.0 mi North 4.6 mph - N/A   Overcast
4:35 AM 28.4 °F 21.2 °F 27.9 °F 98% 30.08 in 5.0 mi North 6.9 mph - N/A   Overcast
4:55 AM 28.4 °F 23.3 °F 27.9 °F 98% 30.08 in 5.0 mi NNE 4.6 mph - N/A   Overcast
5:15 AM 28.4 °F 24.6 °F 28.0 °F 99% 30.09 in 5.0 mi NNE 3.5 mph - N/A   Overcast
5:35 AM 28.4 °F - 27.9 °F 98% 30.09 in 5.0 mi Calm Calm - N/A   Overcast
5:55 AM 28.4 °F - 27.5 °F 96% 30.09 in 5.0 mi Calm Calm - N/A   Overcast
6:15 AM 28.0 °F - 27.3 °F 97% 30.09 in 5.0 mi Calm Calm - N/A   Overcast
6:35 AM 27.9 °F - 27.3 °F 98% 30.09 in 5.0 mi Calm Calm - N/A   Overcast
6:55 AM 27.9 °F - 27.1 °F 97% 30.09 in 7.0 mi Calm Calm - N/A   Overcast
7:15 AM 27.9 °F 24.0 °F 27.1 °F 97% 30.09 in 5.0 mi NNE 3.5 mph - N/A   Overcast
7:35 AM 27.5 °F - 27.0 °F 98% 30.09 in 5.0 mi Calm Calm - N/A   Overcast
7:55 AM 27.5 °F - 27.0 °F 98% 30.10 in 5.0 mi Calm Calm - N/A   Overcast
8:15 AM 27.5 °F - 27.0 °F 98% 30.10 in 5.0 mi Calm Calm - N/A   Overcast
8:35 AM 27.9 °F - 27.0 °F 96% 30.10 in 5.0 mi Calm Calm - N/A   Overcast
8:55 AM 28.2 °F 24.4 °F 27.0 °F 95% 30.11 in 5.0 mi North 3.5 mph - N/A   Overcast
9:15 AM 28.2 °F - 27.0 °F 95% 30.10 in 5.0 mi Calm Calm - N/A   Overcast
9:35 AM 28.4 °F - 27.0 °F 94% 30.10 in 7.0 mi Calm Calm - N/A   Overcast
9:55 AM 28.9 °F - 26.6 °F 91% 30.10 in 7.0 mi Calm Calm - N/A   Overcast
10:15 AM 28.9 °F - 26.6 °F 91% 30.11 in 7.0 mi Calm Calm - N/A   Overcast
10:35 AM 29.3 °F - 24.8 °F 83% 30.10 in 7.0 mi Calm Calm - N/A   Overcast
10:55 AM 29.3 °F - 24.3 °F 81% 30.09 in 7.0 mi Calm Calm - N/A   Overcast
11:15 AM 29.3 °F - 23.9 °F 80% 30.09 in 10.0 mi Calm Calm - N/A   Overcast
11:35 AM 29.7 °F - 23.7 °F 79% 30.08 in 10.0 mi Calm Calm - N/A   Overcast
11:55 AM 30.0 °F - 23.5 °F 77% 30.07 in 10.0 mi Calm Calm - N/A   Overcast
12:15 PM 30.2 °F - 22.3 °F 72% 30.07 in 10.0 mi Calm Calm - N/A   Overcast
12:35 PM 30.4 °F - 22.1 °F 71% 30.06 in 10.0 mi Calm Calm - N/A   Overcast
12:55 PM 30.2 °F - 22.1 °F 72% 30.06 in 10.0 mi Calm Calm - N/A   Overcast
1:15 PM 30.7 °F - 23.0 °F 73% 30.05 in 10.0 mi Calm Calm - N/A   Overcast
1:35 PM 30.7 °F - 22.8 °F 72% 30.04 in 10.0 mi Calm Calm - N/A   Overcast
1:55 PM 30.7 °F - 22.6 °F 72% 30.03 in 10.0 mi Calm Calm - N/A   Overcast
2:15 PM 30.9 °F - 22.5 °F 71% 30.03 in 10.0 mi Calm Calm - N/A   Overcast
2:35 PM 31.3 °F - 22.3 °F 69% 30.02 in 10.0 mi Calm Calm - N/A   Overcast
2:55 PM 31.3 °F - 22.3 °F 69% 30.01 in 10.0 mi Calm Calm - N/A   Overcast
3:15 PM 31.1 °F - 21.6 °F 68% 30.01 in 10.0 mi Calm Calm - N/A   Overcast
3:35 PM 30.9 °F - 21.2 °F 67% 30.01 in 10.0 mi Calm Calm - N/A   Overcast
3:55 PM 30.7 °F - 19.9 °F 64% 30.01 in 10.0 mi Calm Calm - N/A   Overcast
4:15 PM 30.0 °F - 20.3 °F 67% 30.01 in 10.0 mi Calm Calm - N/A   Overcast
4:35 PM 30.0 °F - 20.1 °F 67% 30.00 in 10.0 mi Calm Calm - N/A   Overcast
4:55 PM 30.0 °F - 20.5 °F 68% 29.99 in 10.0 mi Calm Calm - N/A   Overcast
5:15 PM 29.3 °F - 20.7 °F 70% 29.99 in 10.0 mi Calm Calm - N/A   Overcast
5:35 PM 29.3 °F - 20.5 °F 70% 29.99 in 10.0 mi Calm Calm - N/A   Overcast
5:55 PM 28.9 °F - 20.3 °F 70% 29.99 in 10.0 mi Calm Calm - N/A   Overcast
6:15 PM 28.8 °F - 20.7 °F 72% 29.99 in 10.0 mi Calm Calm - N/A   Overcast
6:35 PM 28.4 °F - 20.8 °F 73% 29.98 in 10.0 mi Calm Calm - N/A   Overcast
6:55 PM 28.2 °F - 21.2 °F 75% 29.97 in 10.0 mi Calm Calm - N/A   Overcast
7:15 PM 28.2 °F - 21.0 °F 74% 29.97 in 10.0 mi Calm Calm - N/A   Overcast
7:35 PM 28.4 °F - 20.7 °F 73% 29.97 in 10.0 mi Calm Calm - N/A   Overcast
7:55 PM 28.9 °F 25.2 °F 20.1 °F 70% 29.97 in 10.0 mi SSE 3.5 mph - N/A   Overcast
8:15 PM 28.9 °F 25.2 °F 20.1 °F 70% 29.97 in 10.0 mi SSE 3.5 mph - N/A   Overcast
8:35 PM 28.9 °F - 20.3 °F 70% 29.96 in 10.0 mi Calm Calm - N/A   Overcast
8:55 PM 28.4 °F 24.6 °F 20.1 °F 71% 29.95 in 10.0 mi South 3.5 mph - N/A   Overcast
9:15 PM 28.4 °F 24.6 °F 20.3 °F 72% 29.95 in 10.0 mi South 3.5 mph - N/A   Overcast
9:35 PM 28.4 °F 24.6 °F 20.3 °F 72% 29.95 in 10.0 mi South 3.5 mph - N/A   Overcast
9:55 PM 28.4 °F - 20.3 °F 72% 29.94 in 10.0 mi Calm Calm - N/A   Overcast
10:15 PM 28.0 °F - 20.3 °F 73% 29.94 in 10.0 mi Calm Calm - N/A   Overcast
10:35 PM 28.0 °F - 20.7 °F 74% 29.94 in 10.0 mi Calm Calm - N/A   Overcast
10:55 PM 27.5 °F - 20.8 °F 76% 29.93 in 10.0 mi Calm Calm - N/A   Overcast
11:15 PM 27.3 °F - 21.0 °F 77% 29.93 in 10.0 mi Calm Calm - N/A   Overcast
11:35 PM 27.5 °F - 20.8 °F 76% 29.93 in 10.0 mi Calm Calm - N/A   Overcast
11:55 PM 28.0 °F 24.2 °F 20.8 °F 74% 29.92 in 10.0 mi South 3.5 mph - N/A   Overcast